Overview Statistics Trail Chart Weather Telemetry Raw packets
 

This is the latest recevied weather packets stored in our database for station/object EA1HTW-13. If no packets are shown the sender has not sent any weather packets the latest 10 day(s).

<< 20 21 22 23 24 25 26 >>
Time Temp. Humidity Pressure Rain* Wind** Luminosity Snow
1777735215 19.44° C 64% 1008 hPa 0 mm - - -
1777734673 18.89° C 64% 1008.2 hPa 0 mm - - -
1777734135 19.44° C 63% 1008.2 hPa 0 mm - - -
1777733595 19.44° C 64% 1008.2 hPa 0 mm - - -
1777733055 19.44° C 64% 1008.2 hPa 0 mm - - -
1777732518 19.44° C 63% 1008.3 hPa 0 mm - - -
1777731974 19.44° C 64% 1008.5 hPa 0 mm - - -
1777731434 19.44° C 67% 1008.6 hPa 0 mm - - -
1777730895 18.33° C 70% 1008.7 hPa 0 mm - - -
1777730354 17.22° C 70% 1008.8 hPa 0 mm - - -
1777729814 17.78° C 67% 1009 hPa 0 mm - - -
1777729274 17.78° C 64% 1008.9 hPa 0 mm - - -
1777728735 18.33° C 61% 1009 hPa 0 mm - - -
1777728196 18.89° C 59% 1008.9 hPa 0 mm - - -
1777727655 20° C 57% 1008.6 hPa 0 mm - - -
1777727115 20° C 56% 1008.5 hPa 0 mm - - -
1777726574 20° C 55% 1008.7 hPa 0 mm - - -
1777726035 20° C 57% 1008.6 hPa 0 mm - - -
1777725494 19.44° C 58% 1008.6 hPa 0 mm - - -
1777724955 19.44° C 59% 1008.8 hPa 0 mm - - -
1777724414 19.44° C 59% 1008.8 hPa 0 mm - - -
1777723874 19.44° C 60% 1009.1 hPa 0 mm - - -
1777723334 19.44° C 60% 1009 hPa 0 mm - - -
1777722795 20° C 60% 1009.2 hPa 0 mm - - -
1777722255 20° C 58% 1009 hPa 0 mm - - -

* Rain latest hour (hover to see other rain measurements)
** Current wind speed in m/s (hover to see current wind gust speed)